"Time","Temp","Dewpoint","Humidity","Pressure","Direction","Speed","Gust","Precip","PrecipRate"
"00:04:58","23.8","18.5","80","30.38","334","0.1","2.3","0.00","0.00"
"00:09:57","23.7","18.7","81","30.38","334","0.1","1.2","0.00","0.00"
"00:14:57","23.4","18.7","82","30.39","334","0","0","0.00","0.00"
"00:19:59","23.1","18.4","82","30.39","334","0","1","0.00","0.00"
"00:24:56","22.9","18.2","82","30.39","334","0","1.2","0.00","0.00"
"00:29:58","22.6","18","82.3","30.39","334","0","0","0.00","0.00"
"00:34:59","22.2","18.1","84","30.39","334","0","0","0.00","0.00"
"00:39:57","21.9","18.1","85","30.39","334","0","0","0.00","0.00"
"00:44:59","21.5","17.7","85","30.39","334","0","0","0.00","0.00"
"00:49:56","21.2","17.5","85.1","30.39","334","0","0","0.00","0.00"
"00:54:58","20.9","17.4","86","30.39","334","0","0","0.00","0.00"
"00:59:59","20.6","17.2","86.6","30.39","334","0","0","0.00","0.00"
"01:04:57","20.4","17.1","87","30.39","334","0","0","0.00","0.00"
"01:09:59","20.1","17","87.4","30.39","334","0","0","0.00","0.00"
"01:14:56","19.9","16.9","88","30.40","334","0","0","0.00","0.00"
"01:19:59","19.7","17","89","30.40","334","0","0","0.00","0.00"
"01:24:57","19.7","17","89","30.40","334","0","0","0.00","0.00"
"01:29:58","19.9","17.2","89","30.40","334","0","0","0.00","0.00"
"01:34:59","19.9","17","88.2","30.40","334","0","0","0.00","0.00"
"01:39:56","19.8","16.8","88","30.40","334","0","0","0.00","0.00"
"01:44:58","19.7","16.7","88","30.41","334","0","0","0.00","0.00"
"01:49:59","19.7","17","88.9","30.41","334","0","0","0.00","0.00"
"01:54:56","19.7","17","89","30.41","334","0","0","0.00","0.00"
"01:59:57","19.8","17.1","88.8","30.41","334","0","0","0.00","0.00"
"02:04:56","20.1","17.2","88.5","30.41","334","0.1","2","0.00","0.00"
"02:09:58","20","17","88","30.41","334","0","2.3","0.00","0.00"
"02:14:59","19.9","16.9","88","30.42","333","0.6","3.5","0.00","0.00"
"02:19:57","20.1","17.1","88","30.42","333","0.5","3.5","0.00","0.00"
"02:24:58","20.6","17.5","87.6","30.42","334","1.1","5","0.00","0.00"
"02:29:56","21","17.6","86.8","30.43","334","0.2","2.3","0.00","0.00"
"02:34:57","21","17.5","86","30.43","334","0","0","0.00","0.00"
"02:39:59","21","17.5","86","30.43","334","0","0","0.00","0.00"
"02:44:56","20.8","17.3","86","30.43","334","0.1","1.2","0.00","0.00"
"02:49:58","20.6","17.2","86.4","30.43","334","0.1","2","0.00","0.00"
"02:54:59","20.5","17.2","87","30.43","334","0.1","2.3","0.00","0.00"
"02:59:57","20.2","17","87.2","30.44","334","0","0","0.00","0.00"
"03:04:56","20.1","17.1","88","30.44","334","0","0","0.00","0.00"
"03:09:58","20","17","88","30.44","334","0","0","0.00","0.00"
"03:14:59","19.8","16.8","88","30.44","334","0","0","0.00","0.00"
"03:19:56","19.7","16.7","88","30.44","334","0","0","0.00","0.00"
"03:24:57","19.6","16.6","88","30.44","334","0","0","0.00","0.00"
"03:29:59","19.4","16.4","88","30.44","334","0","0","0.00","0.00"
"03:34:56","19.1","16.1","88","30.44","334","0","0","0.00","0.00"
"03:39:58","18.9","15.9","88","30.44","334","0","0","0.00","0.00"
"03:44:59","18.6","15.6","88","30.44","334","0","0","0.00","0.00"
"03:49:57","18.4","15.5","88.3","30.44","334","0","0","0.00","0.00"
"03:54:58","18.3","15.6","89","30.44","334","0","0","0.00","0.00"
"03:59:56","18.2","15.8","89.9","30.44","334","0","0","0.00","0.00"
"04:04:58","18.1","15.7","90","30.44","334","0","0","0.00","0.00"
"04:09:59","18","15.6","90","30.44","334","0","0","0.00","0.00"
"04:14:57","17.8","15.4","90","30.44","334","0","0","0.00","0.00"
"04:19:58","17.7","15.4","90.6","30.44","334","0","0","0.00","0.00"
"04:24:56","17.6","15.4","90.8","30.44","334","0.1","1.2","0.00","0.00"
"04:29:58","17.6","15.5","91.3","30.44","334","0.2","1.2","0.00","0.00"
"04:34:59","17.7","15.7","91.6","30.44","334","0","0","0.00","0.00"
"04:39:56","17.6","15.4","91","30.44","334","0","0","0.00","0.00"
"04:44:58","17.5","15.3","91","30.44","334","0","0","0.00","0.00"
"04:49:59","17.3","15.1","91","30.44","334","0","0","0.00","0.00"
"04:54:57","17.3","15.1","91","30.44","334","0.7","2.3","0.00","0.00"
"04:59:58","17.3","15.1","91","30.44","334","1.7","2.3","0.00","0.00"
"05:04:57","17.2","15","91","30.44","334","1.3","2.3","0.00","0.00"
"05:09:58","17.1","14.9","91","30.44","334","1.2","2.3","0.00","0.00"
"05:14:59","17.2","15.2","91.7","30.44","334","0.1","1.2","0.00","0.00"
"05:19:57","17.2","15.1","91.1","30.44","334","0","0","0.00","0.00"
"05:24:58","17.1","14.9","91","30.44","334","0","0","0.00","0.00"
"05:29:55","17","14.8","91","30.45","334","0.1","2.3","0.00","0.00"
"05:34:57","16.9","14.7","91","30.45","334","0","0","0.00","0.00"
"05:39:58","16.8","14.6","91","30.45","334","0","0","0.00","0.00"
"05:44:56","16.6","14.4","91","30.45","334","0","0","0.00","0.00"
"05:49:57","16.5","14.3","91","30.45","334","0","0","0.00","0.00"
"05:54:58","16.4","14.2","91","30.45","334","0","1.2","0.00","0.00"
"05:59:56","16.3","14.1","91","30.46","334","0","1.2","0.00","0.00"
"06:04:58","16.2","14","91","30.46","334","0.2","2","0.00","0.00"
"06:09:57","16.2","14.2","91.8","30.46","334","0.5","2.3","0.00","0.00"
"06:14:58","16.3","14.4","92","30.46","334","0","0","0.00","0.00"
"06:19:59","16.2","14.1","91.1","30.46","354","0.5","2.3","0.00","0.00"
"06:24:57","16.2","14","91","30.46","5","0","0","0.00","0.00"
"06:29:58","16","13.8","91","30.46","5","0","1","0.00","0.00"
"06:34:56","15.8","13.6","91","30.46","5","0","0","0.00","0.00"
"06:39:57","15.7","13.5","91","30.46","5","0","1.2","0.00","0.00"
"06:44:58","15.7","13.5","91.1","30.47","5","0.2","1.2","0.00","0.00"
"06:49:56","15.7","13.8","92","30.47","5","0","0","0.00","0.00"
"06:54:57","15.7","13.7","91.6","30.47","5","0.4","2.3","0.00","0.00"
"06:59:59","15.7","13.7","91.7","30.47","5","0.1","2.3","0.00","0.00"
"07:04:53","15.7","13.7","91.8","30.47","5","0","0","0.00","0.00"
"07:09:58","15.5","13.3","91","30.47","5","0.1","1.2","0.00","0.00"
"07:14:56","15.5","13.5","91.6","30.48","5","0.1","1.2","0.00","0.00"
"07:19:57","15.6","13.7","92","30.48","5","0.6","2.3","0.00","0.00"
"07:24:59","15.7","13.8","92","30.48","5","0.4","1.2","0.00","0.00"
"07:29:56","15.7","13.8","92","30.48","5","0","0","0.00","0.00"
"07:34:58","15.7","13.6","91.4","30.48","5","0","0","0.00","0.00"
"07:39:56","15.5","13.3","91","30.48","5","0","1.2","0.00","0.00"
"07:44:58","15.4","13.2","91","30.48","5","0","0","0.00","0.00"
"07:49:59","15.3","13.1","91","30.48","5","0.1","1.2","0.00","0.00"
"07:54:57","15.3","13.1","91","30.48","5","0","0","0.00","0.00"
"07:59:59","15.2","13","91","30.48","5","0","0","0.00","0.00"
"08:04:57","15.3","13.2","91.6","30.48","5","0.2","2.3","0.00","0.00"
"08:09:59","15.5","13.6","92","30.48","5","0.7","2.3","0.00","0.00"
"08:14:56","15.8","14","92.7","30.48","5","0","1.2","0.00","0.00"
"08:19:57","16.1","14.4","93","30.47","5","0","0","0.00","0.00"
"08:24:58","16.5","14.8","93","30.47","5","0","0","0.00","0.00"
"08:29:59","17","15.5","93.6","30.48","5","0","0","0.00","0.00"
"08:34:56","17.6","16.2","94.1","30.48","5","0","0","0.00","0.00"
"08:39:58","18.6","17.4","95","30.48","5","0","0","0.00","0.00"
"08:44:59","19.5","18.2","94.5","30.48","5","0","0","0.00","0.00"
"08:49:56","20.5","19.3","95","30.48","5","0","0","0.00","0.00"
"08:54:57","21.4","19.8","93.4","30.48","5","0","1.2","0.00","0.00"
"08:59:58","22.1","20.2","92.3","30.48","5","0","0","0.00","0.00"
"09:04:56","23","20.9","91.4","30.48","5","0.1","1.2","0.00","0.00"
"09:09:58","23.7","21.3","90.3","30.48","5","0","0","0.00","0.00"
"09:14:59","24.8","22.5","90.9","30.49","5","0.3","2.3","0.00","0.00"
"09:19:56","25.4","22.1","87.3","30.49","5","0.8","2.3","0.00","0.00"
"09:24:57","25.9","22.6","86.8","30.49","5","0.7","2.3","0.00","0.00"
"09:29:59","26.6","22.8","85.5","30.50","25","1.1","3","0.00","0.00"
"09:34:56","27.1","23.1","84.6","30.50","36","1.6","4","0.00","0.00"
"09:39:57","27.3","22.3","81.3","30.50","113","2.1","5","0.00","0.00"
"09:44:58","27.2","21.8","79.9","30.50","135","2.5","5","0.00","0.00"
"09:49:59","27","21.8","80.8","30.50","135","2.2","4","0.01","0.00"
"09:54:56","27.3","22.2","80.9","30.50","137","2","4","0.01","0.01"
"09:59:57","27.4","21.8","79.3","30.51","151","2.7","6","0.01","0.01"
"10:04:59","27.4","21.9","79.6","30.51","157","1.4","4","0.01","0.01"
"10:09:56","27.8","22.2","79.2","30.51","168","2.1","5","0.01","0.01"
"10:14:58","28.1","22.1","78.1","30.51","175","1.8","4.6","0.01","0.01"
"10:19:57","28.4","22.1","76.9","30.51","175","2.2","6","0.01","0.01"
"10:24:58","28.7","22.2","76.1","30.51","175","2.1","4.6","0.01","0.01"
"10:29:59","29.1","22.1","75","30.51","174","1.9","4","0.01","0.01"
"10:34:56","29.4","22.5","74.8","30.51","174","2.1","5","0.01","0.01"
"10:39:58","29.7","22.3","73.5","30.51","175","2.3","4","0.01","0.01"
"10:44:59","29.7","22.3","73.8","30.51","175","2.1","5","0.01","0.01"
"10:49:56","29.7","22.5","74.3","30.50","172","1.7","4.6","0.01","0.01"
"10:54:57","29.9","22.5","73.6","30.50","119","2.6","5","0.01","0.00"
"10:59:58","30.1","22","71.7","30.50","125","2.6","6","0.01","0.00"
"11:04:56","30.1","22.2","71.8","30.50","124","3","6","0.01","0.00"
"11:09:58","30.2","22.7","73.1","30.50","118","2","5.8","0.02","0.01"
"11:14:59","30.5","22.9","73.2","30.50","122","0.2","2.3","0.02","0.01"
"11:19:56","30.8","22.9","72.1","30.49","163","1.9","5","0.03","0.01"
"11:24:57","30.9","22.8","71.6","30.49","123","2.3","5","0.03","0.02"
"11:29:58","31.1","23.1","71.9","30.49","134","0.9","5","0.04","0.03"
"11:34:56","31.3","23.3","72","30.49","181","3.3","6","0.04","0.03"
"11:39:57","31.2","23.7","73.4","30.49","180","1.8","4","0.05","0.04"
"11:44:59","31.4","23.4","72","30.49","149","2.3","6","0.05","0.04"
"11:49:56","31.5","23.4","71.7","30.48","166","2.6","5","0.06","0.05"
"11:54:57","31.4","23.3","71.6","30.48","172","2","4.6","0.06","0.05"
"11:59:58","31.4","23.3","71.7","30.48","122","2.5","5","0.07","0.06"
"12:04:56","31.4","23.2","71.2","30.47","124","2.7","7","0.07","0.06"
"12:09:57","31.2","22.8","70.9","30.47","123","3","6.9","0.08","0.06"
"12:14:56","31","23.2","72.3","30.47","135","3","7","0.08","0.06"
"12:19:59","31.1","23.6","73.5","30.47","106","2.6","6","0.08","0.06"
"12:24:56","31.3","23.9","73.7","30.47","186","2.6","5.8","0.09","0.06"
"12:29:57","31.5","24","73.3","30.47","127","3.1","7","0.09","0.06"
"12:34:58","31.5","24","73.4","30.46","153","2.6","5.8","0.10","0.06"
"12:39:56","31.6","24.3","74","30.46","140","2.3","5","0.10","0.06"
"12:44:57","31.7","24.2","73.5","30.46","167","3","6","0.10","0.05"
"12:49:56","31.9","24.4","73.6","30.45","152","2.8","5","0.10","0.05"
"12:54:59","31.9","24.8","74.8","30.45","121","3.9","9.2","0.11","0.04"
"12:59:59","31.7","24.8","75.4","30.45","157","3.3","6.9","0.11","0.05"
"13:04:59","31.8","25.1","75.9","30.45","166","2.7","5","0.11","0.04"
"13:09:56","32.1","25.3","75.7","30.45","184","3.8","9.2","0.12","0.04"
"13:14:56","32","25","75","30.45","192","4.7","10.4","0.12","0.04"
"13:19:59","31.9","24.9","75","30.44","193","4.9","10.4","0.12","0.04"
"13:24:54","31.8","24.9","75.3","30.44","187","4","6.9","0.12","0.04"
